REICHNBCH Weather Reports


time (UTC)temp
F
wind
direction
speed
knots
gust
knots
rain 1hr
in
rain 24hr
in
rain mn
in
humidity
%
barometer
mb
20260504220209 58 89 0.0 0.0 0.00 0.00 0.00 74 1013.0
20260504213209 60 89 0.0 0.0 0.00 0.00 0.00 71 1013.2
20260504210209 61 0 2.6 0.0 0.00 0.00 0.00 67 1013.3
20260504203209 61 0 2.6 0.0 0.00 0.00 0.00 65 1013.5
20260504200209 62 0 2.6 0.0 0.00 0.00 0.00 64 1013.7
20260504193209 62 0 2.6 0.0 0.00 0.00 0.00 61 1013.4
20260504190209 62 0 2.6 0.0 0.00 0.00 0.00 63 1013.1
20260504183209 64 0 2.6 0.0 0.00 0.00 0.00 59 1012.9
20260504180214 65 5 8.7 0.0 0.00 0.00 0.00 57 1012.8
20260504173209 65 0 4.3 0.0 0.00 0.00 0.00 58 1012.5
20260504170210 67 0 4.3 0.0 0.00 0.00 0.00 53 1012.4
20260504160210 70 351 2.6 0.0 0.00 0.00 0.00 49 1012.4
20260504150210 72 331 5.2 0.0 0.00 0.00 0.00 42 1012.5
20260504140209 74 0 2.6 0.0 0.00 0.00 0.00 47 1012.9
20260504130215 71 345 6.1 0.0 0.00 0.00 0.00 52 1013.3
20260504120210 69 0 0.0 0.0 0.00 0.00 0.00 52 1014.0
20260504110210 69 332 1.7 0.0 0.00 0.00 0.00 56 1014.3
20260504100212 68 0 1.7 0.0 0.00 0.00 0.00 54 1014.8
20260504080210 62 0 2.6 0.0 0.00 0.00 0.00 65 1015.7
20260504070212 58 0 2.6 0.0 0.00 0.00 0.00 73 1015.7
20260504060212 53 0 2.6 0.0 0.00 0.00 0.00 80 1015.7
20260504050210 52 0 2.6 0.0 0.00 0.00 0.00 79 1015.7
20260504043211 52 0 2.6 0.0 0.00 0.00 0.00 76 1015.6
20260504040211 53 0 2.6 0.0 0.00 0.00 0.00 76 1015.6
20260504033211 53 0 2.6 0.0 0.00 0.00 0.00 74 1015.6
20260504030212 54 0 2.6 0.0 0.00 0.00 0.00 74 1015.6
20260504023211 55 0 2.6 0.0 0.00 0.00 0.00 72 1015.6
20260504020212 55 0 2.6 0.0 0.00 0.00 0.00 71 1015.5
20260504013211 56 0 2.6 0.0 0.00 0.00 0.00 70 1015.6
20260504010211 56 0 2.6 0.0 0.00 0.00 0.00 70 1015.5
20260504003210 57 0 2.6 0.0 0.00 0.00 0.00 67 1015.5
20260504000208 58 0 2.6 0.0 0.00 0.00 0.00 65 1015.6
20260503233209 58 0 2.6 0.0 0.00 0.00 0.00 63 1015.9
20260503230209 59 0 2.6 0.0 0.00 0.00 0.00 62 1016.1
20260503223210 59 0 2.6 0.0 0.00 0.00 0.00 59 1016.2